050818 A32  0.4-  0.1-    051002 939  0.2-  0.1-    051223 H45  0.5+  0.6+  

050818 A32  0.3-  0.1-    051002 H47  0.0   0.3-    051223 H45  0.4+  0.0   

050818 D88  1.1-  1.2-    051002 H47  0.1-  0.8-    051223 H45  0.3-  0.3-  

050818 D88  1.6-  0.5+    051005 H47  1.5+  1.6+    051223 H45  0.0   0.1+  

050818 D88  0.0   0.5-    051005 H47  0.2-  1.4-    051223 J76  0.1+  0.3-  

050819 349  0.7-  0.4-    051008 232  0.3+  0.1-    051223 J76  0.5+  0.2+  

050819 349  0.3-  0.1-    051008 232  0.3+  0.1+    051223 J76  0.9+  0.2+  

050819 349  0.4-  0.3-    051008 A01  1.2-  1.1-    051225 232  1.3+  1.4+  

050821 939  0.9-  0.4+    051008 A32  0.3-  0.4+    051225 232  0.2+  0.5+  

050821 232  0.3-  0.7-    051008 A32  0.2-  0.4+    051225 232  0.7+  0.8+  

050821 232  0.2+  0.6-    051008 A32  0.4-  0.4+    051225 D88  0.1+  0.1-  

050821 232  0.9+  0.1+    051009 A32  0.2-  0.1+    051225 D88  0.6+  0.3+  

050821 939  0.9-  0.1-    051009 232  0.6-  0.4-    051225 D88  0.6+  0.4+  

050821 939  0.7-  0.4-    051009 232  0.1-  0.2+    051225 J97  0.1+  0.8-  

050822 945  0.6+  0.3+    051009 232  0.5-  0.2-    051225 048  0.8+  0.6+  

050822 945  1.4+  0.1+    051012 A32  0.3-  0.4+    051225 048  0.7+  1.0+  

050822 945  0.9+  0.0     051012 A32  0.5-  0.0     051225 048  0.6+  1.1+  

050822 945  0.1+  1.2+    051012 A32  0.9-  0.3+    051225 048  1.1+  0.3+  

050822 945 (0.3-  3.0+)   051012 A32  0.6-  0.3+    051225 048  1.5+  1.0+  

050823 I77  0.3+  0.4-    051012 D83  0.1-  0.1-    051225 A32  0.6-  1.7-  

050823 I77  0.1+  0.2-    051012 D83  0.2-  0.1+    051225 A32  1.0-  1.5-  

050823 I77  0.4+  0.1-    051012 D83  0.2-  0.2+    051225 A32  1.5-  1.7-  

050824 939  0.8-  0.3+    051012 D83  0.1-  0.1-    051231 349  0.9-  0.5-  

050824 939  0.7-  0.4+    051012 240  0.8-  0.1+    051231 349  0.7-  0.4-  

050824 939  0.3-  0.3+    051012 240  0.0   0.0     051231 349  0.5-  0.4-  

050825 213  0.0   0.3-    051012 240  1.0+  1.2-    2006/                   

050825 213  1.2+  0.1-    051015 939  1.3-  0.7+    060101 213  0.1+  0.1-  

050825 213  0.1+  0.4+    051015 939  0.7-  0.6+    060101 213  0.1+  0.2+  

050826 048  0.6+  0.1-    051016 939  0.1-  0.1-    060101 213  0.0   0.8-  

050826 048  1.1+  0.6-    051016 118  0.2+  0.4-    060105 213  0.3+  0.3-  

050826 048  0.6+  0.3-    051016 118  0.3+  0.4-    060105 213  1.0+  0.4+  

050826 048  0.4+  0.5-    051016 118  0.5+  0.1-    060105 213  1.1+  0.4+  

050826 048  0.4+  0.2-    051016 118  0.2+  0.1-    060108 118  0.1-  0.3-  

050827 939  0.8-  0.1-    051016 118  0.4+  0.0     060108 118  0.4+  0.1-  

050827 939  0.6-  0.1-    051021 213  0.6+  0.1-    060108 118  0.1+  0.6+  

050827 939  0.4-  0.2-    051021 213  0.5+  0.1-    060108 118  0.1+  0.0   

050829 215  0.8+  0.2-    051021 213  0.5+  0.1-    060108 A32  0.1-  0.6-  

050829 215  0.6+  0.3-    051022 232  1.0-  0.1-    060108 A32  0.1+  0.2+  

050829 215  0.7+  0.2-    051022 232  0.6-  0.4-    060108 A32  0.7+  0.8+  

050829 213  0.2+  0.1-    051022 232  0.1-  0.2-    060118 213  0.1-  0.4-  

050829 213  0.8+  0.6+    051023 349  0.2+  0.1+    060118 213  0.0   0.3-  

050829 213  0.4+  0.5+    051023 349  0.0   0.2-    060118 213  0.1+  0.4-  

050830 A39  0.5+  0.4-    051023 349  0.1-  0.0     060121 704  0.0   0.5+  

050830 A39  0.6+  0.4-    051026 215  0.2+  0.1+    060121 704  0.4+  0.1-  

050830 A39  0.5+  0.3-    051026 215  0.3+  0.0     060121 704  0.2+  0.7+  

050830 A39  0.2+  0.0     051026 215  0.1+  0.2-    060121 704  0.3+  0.1+  

050830 A39  0.6+  0.3-    051026 A32  0.4-  1.3+    060121 704  1.1+  0.1+  

050831 704 (2.8-  1.5-)   051026 A32  0.4-  0.4+    060123 918  0.4+  0.6-  

050831 704 (3.5-  1.3-)   051029 442  0.4-  0.3+    060123 918  0.3-  0.4+  

050831 704 (2.9-  1.4-)   051029 442  0.3-  0.5+    060123 918  0.5+  0.3-  

050831 704 (3.0-  1.7-)   051030 118  0.7-  0.1+    060123 918  0.8+  0.1-  

050831 704 (7.1-  0.1+)   051030 118  0.9+  0.7-    060123 918  0.2+  0.2-  

050901 349  0.3-  0.2-    051030 118  0.9+  0.5-    060123 215  1.5+  0.4+  

050901 349  0.2-  0.2-    051030 A18  1.1-  1.5+    060129 349  0.4-  0.2-  

050901 349  0.1-  0.2-    051030 A18  1.0+  0.9+    060129 349  0.8-  0.1+  

050902 945  0.7+  0.4+    051031 352  0.3+  0.5+    060129 349  1.0-  0.0   

050902 945  0.7+  0.3+    051031 352  0.3-  0.4+    060202 204  0.9+  0.6-  

050902 945  0.8+  0.5+    051031 352  0.1-  0.4+    060204 349  0.3-  2.0-  

050902 945  0.6+  0.4+    051101 939  0.3+  0.0     060204 349  0.6-  2.1-  

050902 945  0.6+  0.5+    051101 939  0.2+  0.1-                            

050903 939  0.2-  0.2+    051101 939  0.1+  0.3-                            



NAKANO

         **** Don't distribute anyone except personal use only ****

                (C) Copyright 2006 OAA/ComputingSection

write mail from CFAD0::NAKANO on 2006-11-04 04:16:10(JST).

 



    P/2005 K3 (McNaught)

Epoch 2005 Aug. 18.0 TT = JDT 2453600.5  

T 2005 Aug. 11.40976 TT                                 Nakano

q   1.5091370            (2000.0)            P               Q

n   0.13882091     Peri.   15.59109     +0.98983642     -0.13712675

a   3.6940218      Node   352.00094     +0.08314000     +0.77298360

e   0.5914650      Incl.   15.71214     +0.11537588     +0.61942927

P   7.10 (+/- 0.01 day)

From 428 observations 2005 May 20-Dec. 6, mean residual 0".50.



NAKANO

         **** Don't distribute anyone except personal use only ****

                (C) Copyright 2005 OAA/ComputingSection

write mail from CFAD0::NAKANO on 2005-12-08 01:42:10(JST).

 





    P/2005 K3 (McNaught)

Epoch 2005 Aug. 18.0 TT = JDT 2453600.5  

T 2005 Aug. 11.41034 TT                                 Nakano

q   1.5091162            (2000.0)            P               Q

n   0.13886164     Peri.   15.59142     +0.98983714     -0.13712078

a   3.6932994      Node   352.00024     +0.08313404     +0.77298667

e   0.5913908      Incl.   15.71195     +0.11537400     +0.61942675

P   7.10 (+/- 0.07 day)

From 212 observations 2005 May 20-Sept. 10, mean residual 0".53.



NAKANO

         **** Don't distribute anyone except personal use only ****

                (C) Copyright 2005 OAA/ComputingSection

write mail from CFAD0::NAKANO on 2005-09-12 05:45:24(JST).

 





    P/2005 K3 (McNaught)

Epoch 2005 Aug. 18.0 TT = JDT 2453600.5  

T 2005 Aug. 11.39895 TT                                 Nakano

q   1.5092375            (2000.0)            P               Q

n   0.13864410     Peri.   15.58420     +0.98984677     -0.13705560

a   3.6971617      Node   352.00380     +0.08309172     +0.77298485

e   0.5917848      Incl.   15.71237     +0.11532191     +0.61944345

P   7.11 (+/- 0.31 day)

From 90 observations 2005 May 20-Aug. 7, mean residual 0".59.



NAKANO

         **** Don't distribute anyone except personal use only ****

                (C) Copyright 2005 OAA/ComputingSection

write mail from CFAD0::NAKANO on 2005-08-10 06:05:41(JST).

 



    P/2005 K3 (McNaught)                                                  

T 2005 Aug. 11.16851 TT                                 Nakano

q   1.5110384            (2000.0)            P               Q

n   0.13607732     Peri.   15.42336     +0.99012642     -0.13508443

a   3.7435090      Node   352.05228     +0.08169379     +0.77312352

e   0.5963578      Incl.   15.71114     +0.11391139     +0.61970334

P   7.24 (+/- 4.38 day)

From 47 observations 2005 May 20-June 26.



NAKANO

         **** Don't distribute anyone except personal use only ****

                (C) Copyright 2005 OAA/ComputingSection

write mail from CFAD0::NAKANO on 2005-07-03 02:21:28(JST).



◎P/2005 K3の軌道と予報位置です



  前回のEMES(=YC 2472;5/20-6/6)の軌道からの6月20日の残差は,赤経方向

に+23",赤緯方向に+20"のずれを生じました.周期がまた短くなりましたが,

周期の平均誤差が1桁小さくなりましたので,このふきんで落ち着くでしょう.



    P/2005 K3 (McNaught)

T 2005 Aug. 11.65327 TT                                 Nakano

q   1.5073789            (2000.0)            P               Q

n   0.14120138     Peri.   15.76372     +0.98951939     -0.13933515

a   3.6523868      Node   351.95444     +0.08472275     +0.77280141

e   0.5872894      Incl.   15.71519     +0.11693349     +0.61916371

P   6.98 (+/- 9.23 day)

From 38 observations 2005 May 20-June 19.

 

Date/        TT  R.A.(2000) Decl.     Delta   r     Daily motion  Mag.  Moon Age

              h    h  m       。  ,                      ,  / PA 。  m1      。

2005 June 20 18  00 55.91  +00 32.3   1.504  1.605    43.5 /  56  15.9  123  .97

          21 18  00 58.31  +00 56.8   1.495  1.602    43.6 /  56  15.9  109 1.00

          22 18  01 00.71  +01 21.3   1.486  1.598    43.7 /  56  15.9   95  .99

          23 18  01 03.11  +01 46.1   1.476  1.595    43.7 /  55  15.9   80  .96

          24 18  01 05.51  +02 10.9   1.467  1.591    43.8 /  55  15.9   66  .90

          25 18  01 07.92  +02 35.8   1.458  1.588    43.9 /  55  15.8   52  .82

          26 18  01 10.32  +03 00.8   1.449  1.585    43.9 /  55  15.8   38  .72

          27 18  01 12.73  +03 25.9   1.440  1.582    44.0 /  55  15.8   25  .61

          28 18  01 15.14  +03 51.1   1.432  1.578    44.1 /  55  15.8   12  .50

          29 18  01 17.55  +04 16.4   1.423  1.575    44.1 /  55  15.7    4  .39

          30 18  01 19.97  +04 41.8   1.414  1.572    44.2 /  55  15.7   14  .29

     July  1 18  01 22.38  +05 07.3   1.406  1.569    44.2 /  55  15.7   26  .21

           2 18  01 24.80  +05 32.8   1.397  1.566    44.3 /  55  15.7   38  .13

           3 18  01 27.21  +05 58.5   1.389  1.564    44.3 /  54  15.7   49  .07

           4 18  01 29.63  +06 24.2   1.380  1.561    44.3 /  54  15.6   61  .03

           5 18  01 32.05  +06 50.0   1.372  1.558    44.4 /  54  15.6   72  .01

           6 18  01 34.48  +07 15.9   1.364  1.555    44.4 /  54  15.6   83  .00

           7 18  01 36.90  +07 41.8   1.356  1.553    44.4 /  54  15.6   94  .02

